This is the latest recevied weather packets stored in our database for station/object KB4RFE. If no packets are shown the sender has not sent any weather packets the latest 10 day(s).
| Time | Temp. | Humidity | Pressure | Rain* | Wind** | Luminosity | Snow |
|---|---|---|---|---|---|---|---|
| 1778094077 | 26.11° C | 71% | 1018.4 hPa | 0 mm | - | 955 W/m² | - |
| 1778093775 | 26.11° C | 72% | 1018.5 hPa | 0 mm | - | 982 W/m² | - |
| 1778093471 | 25.56° C | 73% | 1018.9 hPa | 0 mm | - | 985 W/m² | - |
| 1778093168 | 26.11° C | 72% | 1018.9 hPa | 0 mm | - | 546 W/m² | - |
| 1778092866 | 25.56° C | 74% | 1019.2 hPa | 0 mm | - | 971 W/m² | - |
| 1778092562 | 25.56° C | 75% | 1019 hPa | 0 mm | - | 919 W/m² | - |
| 1778092258 | 25.56° C | 75% | 1019.1 hPa | 0 mm | - | 899 W/m² | - |
| 1778091956 | 25.56° C | 73% | 1019.1 hPa | 0 mm | - | 916 W/m² | - |
| 1778091653 | 25.56° C | 75% | 1019 hPa | 0 mm | - | 914 W/m² | - |
| 1778091351 | 25.56° C | 74% | 1019 hPa | 0 mm | - | 910 W/m² | - |
| 1778091047 | 26.11° C | 74% | 1019 hPa | 0 mm | - | 272 W/m² | - |
| 1778090744 | 25.56° C | 75% | 1018.9 hPa | 0 mm | - | 818 W/m² | - |
| 1778090440 | 26.11° C | 73% | 1019.2 hPa | 0 mm | - | 923 W/m² | - |
| 1778090137 | 25.56° C | 75% | 1019.3 hPa | 0 mm | - | 973 W/m² | - |
| 1778089833 | 25° C | 75% | 1019.5 hPa | 0 mm | - | 742 W/m² | - |
| 1778089532 | 25° C | 76% | 1019.7 hPa | 0 mm | - | 637 W/m² | - |
| 1778089227 | 25° C | 76% | 1019.7 hPa | 0 mm | - | 733 W/m² | - |
| 1778088926 | 25° C | 75% | 1019.6 hPa | 0 mm | - | 419 W/m² | - |
| 1778088622 | 25° C | 74% | 1019.5 hPa | 0 mm | - | 478 W/m² | - |
| 1778088320 | 25.56° C | 74% | 1019.5 hPa | 0 mm | - | 476 W/m² | - |
| 1778088016 | 25.56° C | 72% | 1019.6 hPa | 0 mm | - | 542 W/m² | - |
| 1778087713 | 25.56° C | 73% | 1019.7 hPa | 0 mm | - | 864 W/m² | - |
| 1778087411 | 26.11° C | 73% | 1019.6 hPa | 0 mm | - | 826 W/m² | - |
| 1778087108 | 26.11° C | 72% | 1019.6 hPa | 0 mm | - | 886 W/m² | - |
| 1778086806 | 25.56° C | 71% | 1019.6 hPa | 0 mm | - | 878 W/m² | - |
* Rain latest hour (hover to see other rain measurements)
** Current wind speed in m/s (hover to see current wind gust speed)